Location: Bishop�s Knoyle
(51.0728°N, 2.1714°W)
Time: 08:03:51
(UTC+00:00)

BEESAT 2 - Pass Details

Date: 01 December 2021
Orbit: 498 x 513 km, 64.9° (Epoch: 20 January)

Event Time Altitude Azimuth Distance (km) Brightness Sun altitude
Exits shadow 06:46:04 10° 321° (NW) 1,744 ? -9.6°
Maximum altitude 06:49:58 74° 47° (NE) 541 ? -9.1°
Drops below altitude 10° 06:53:52 10° 133° (SE) 1,739 ? -8.5°
Sets 06:56:02 0° 136° (SE) 2,619 ? -8.2°
